Regional Weather Roundup
Issued by NWS Jackson, KY

Home | Current Version | Previous Version | Graphics & Text | Print | Product List | Glossary On
Versions: 1 2 3 4 5 6 7 8 9 10 11 12 13 14 15 16 17 18 19 20 21 22 23 24 25 26 27 28 29 30 31 32 33 34 35 36 37 38 39 40 41 42 43 44 45 46 47 48 49 50
000
ASUS43 KJKL 291910
RWRJKL

EAST KENTUCKY HOURLY WEATHER ROUNDUP
NATIONAL WEATHER SERVICE JACKSON KY
300 PM EDT WED JUL 29 2015

NOTE: "FAIR" INDICATES FEW OR NO CLOUDS BELOW 12,000 FEET WITH
NO SIGNIFICANT WEATHER AND/OR OBSTRUCTIONS TO VISIBILITY.

* THESE REPORTS ARE NOT UNDER NWS QUALITY CONTROL AND MAY NOT
  REPORT WEATHER SUCH AS PRECIPITATION AND FOG.

KYZ079-080-083-085-087-088-110-112-115-119-120-292000
...EASTERN KENTUCKY...

CITY           SKY/WX    TMP DP  RH WIND       PRES   REMARKS
JACKSON        SUNNY     88  69  53 VRB3      30.04F HX  92
LONDON         MOSUNNY   85  71  63 CALM      30.04F HX  90
SOMERSET*      MOSUNNY   86  73  66 CALM      30.05S HX  93
MONTICELLO*    MOSUNNY   91  76  61 CALM      30.05F HX 102
WILLIAMSBURG*  SUNNY     84  77  79 CALM      30.04F HX  94
MIDDLESBORO*   MOSUNNY   88  71  56 CALM      30.03F HX  94
HAZARD APT*    CLEAR     88  72  58 CALM      30.03F HX  94
BLACK MTN*       N/A     81  70  69 CALM        N/A
PIKEVILLE APT* MOSUNNY   86  72  62 W3        30.04F HX  92
BIG SANDY*     PTCLDY    88  72  57 SW3       30.03S HX  95
MOREHEAD APT*  PTCLDY    88  72  58 S7        30.02F HX  94
$$

KYZ035-036-041-042-044-050-067-078-099-292000
...CENTRAL KENTUCKY...

CITY           SKY/WX    TMP DP  RH WIND       PRES   REMARKS
MT STERLING*   MOSUNNY   88  73  62 CALM      30.02F HX  96
FLEMING/MASON* MOSUNNY   88  73  62 CALM      30.00F HX  96
DANVILLE*      HVY RAIN  73  72  94 E15       30.05S
RICHMOND*      PTSUNNY   88  73  62 CALM      30.01F HX  96
LEXINGTON      PTSUNNY   87  76  69 SW15      29.99F HX  97
FRANKFORT      RAIN      79  74  84 W5        29.99S
$$

KYZ091>093-OHZ055-061-077-WVZ005-015-034-035-042-292000
...SOUTHERN OHIO/WEST VIRGINIA...

CITY           SKY/WX    TMP DP  RH WIND       PRES   REMARKS
COVINGTON      PTSUNNY   89  74  60 S3        29.96F THUNDER HX  98
COLUMBUS       PTSUNNY   90  70  51 SW6       29.96F HX  95
DAYTON         PTSUNNY   89  75  63 S9        29.96F HX  99
WILMINGTON     MOSUNNY   88  72  58 S7        29.97F HX  94
HUNTINGTON     PTSUNNY   88  71  57 CALM      29.98F HX  94
CHARLESTON     PTSUNNY   89  73  59 NW3       29.99F HX  97
PINEVILLE*     MOSUNNY   88  72  59 MISG      30.09F HX  95
BECKLEY        CLOUDY    76  67  73 E3        30.11S
BLUEFIELD      MOSUNNY   84  68  58 VRB3      30.12F
$$

VAZ002-007-008-TNZ017-027-036-066-071-292000
...SOUTHWEST VIRGINIA/EAST TENNESSEE...

CITY           SKY/WX    TMP DP  RH WIND       PRES   REMARKS
WISE*          PTSUNNY   84  64  51 W3        30.12F
ABINGDON*      PTSUNNY   87  69  53 W6        30.07F HX  91
BRISTOL        MOSUNNY   89  69  51 VRB5      30.04F HX  93
KNOXVILLE      PTSUNNY   89  71  55 NW6       30.00F HX  95
OAK RIDGE      PTSUNNY   90  73  57 VRB3      30.02F HX  98
CROSSVILLE     PTSUNNY   85  72  65 NW9       30.08F HX  91
NASHVILLE      MOSUNNY   92  76  59 CALM      30.02F HX 104
$$

...KEY TO REMARKS...
VSB - VISIBILITY IN MILES
WCI - WIND CHILL INDEX
HX  - HEAT INDEX

$$



USA.gov is the U.S. government's official web portal to all federal, state and local government web resources and services.